CW9206 Weather Reports


Display with metric or nautical units.
time (UTC)temp
F
wind
direction
speed
MPH
gust
MPH
rain 1hr
in
rain 24hr
in
rain mn
in
humidity
%
barometer
mb
20260505001726 65 276 3.0 11.0 0.00 0.01 0.01 42 1012.9
20260505001226 65 268 6.0 9.0 0.00 0.01 0.01 43 1012.9
20260505000726 65 276 4.0 6.0 0.00 0.01 0.01 43 1012.9
20260505000226 65 244 1.0 7.0 0.00 0.01 0.01 43 1012.9
20260504235726 65 261 2.0 7.0 0.00 0.01 0.01 43 1012.9
20260504235226 65 260 3.0 7.0 0.00 0.01 0.01 43 1012.9
20260504234226 65 298 2.0 9.0 0.00 0.01 0.01 43 1012.9
20260504233726 65 310 0.0 9.0 0.00 0.01 0.01 43 1013.0
20260504233225 65 251 7.0 9.0 0.01 0.01 0.01 43 1012.9
20260504232725 64 300 2.0 9.0 0.01 0.01 0.01 42 1013.0
20260504232225 64 250 0.0 7.0 0.01 0.01 0.01 42 1013.0
20260504231725 64 248 0.0 8.0 0.01 0.01 0.01 42 1013.1
20260504230726 65 217 1.0 5.0 0.01 0.01 0.01 42 1013.1
20260504230225 65 140 4.0 5.0 0.01 0.01 0.01 41 1013.2
20260504225725 65 198 0.0 4.0 0.01 0.01 0.01 41 1013.2
20260504225225 65 187 0.0 5.0 0.01 0.01 0.01 41 1013.3
20260504224725 64 261 1.0 5.0 0.01 0.01 0.01 41 1013.3
20260504224226 64 217 0.0 5.0 0.01 0.01 0.01 40 1013.3
20260504223224 64 217 0.0 5.0 0.00 0.00 0.00 41 1013.4
20260504222725 64 215 0.0 5.0 0.00 0.00 0.00 42 1013.6
20260504222224 65 213 0.0 3.0 0.00 0.00 0.00 42 1013.6
20260504221724 65 225 0.0 7.0 0.00 0.00 0.00 42 1013.8
20260504221225 65 226 0.0 7.0 0.00 0.00 0.00 43 1013.8
20260504220224 66 281 0.0 5.0 0.00 0.00 0.00 43 1013.9
20260504215725 67 281 2.0 5.0 0.00 0.00 0.00 44 1013.9
20260504215224 67 244 4.0 6.0 0.00 0.00 0.00 43 1013.9
20260504214724 66 175 0.0 6.0 0.00 0.00 0.00 43 1013.9
20260504214224 66 227 0.0 2.0 0.00 0.00 0.00 43 1013.8
20260504213724 65 233 0.0 2.0 0.00 0.00 0.00 44 1014.0
20260504213223 65 260 0.0 2.0 0.00 0.00 0.00 44 1014.1
20260504212724 65 260 0.0 4.0 0.00 0.00 0.00 44 1014.1
20260504212223 66 260 1.0 4.0 0.00 0.00 0.00 44 1014.1
20260504211724 67 303 2.0 9.0 0.00 0.00 0.00 45 1014.0
20260504210223 67 321 0.0 5.0 0.00 0.00 0.00 47 1014.2
20260504205723 68 271 3.0 5.0 0.00 0.00 0.00 46 1014.2
20260504204723 68 310 0.0 8.0 0.00 0.00 0.00 46 1014.1
20260504204223 69 292 3.0 6.0 0.00 0.00 0.00 47 1014.1
20260504203723 69 291 0.0 7.0 0.00 0.00 0.00 48 1014.0
20260504203223 69 232 0.0 7.0 0.00 0.00 0.00 46 1014.0
20260504202723 69 237 2.0 7.0 0.00 0.00 0.00 46 1013.9
20260504202223 70 217 0.0 7.0 0.00 0.00 0.00 46 1013.9
20260504201723 70 175 0.0 6.0 0.00 0.00 0.00 46 1013.8
20260504200723 72 209 3.0 11.0 0.00 0.00 0.00 44 1013.8
20260504200222 72 307 0.0 11.0 0.00 0.00 0.00 42 1013.8
20260504195722 72 165 0.0 11.0 0.00 0.00 0.00 43 1013.8
20260504195222 72 285 2.0 11.0 0.00 0.00 0.00 42 1013.7
20260504194223 71 169 3.0 7.0 0.00 0.00 0.00 44 1014.0
20260504193722 70 193 2.0 6.0 0.00 0.00 0.00 43 1014.0
20260504193222 70 207 3.0 6.0 0.00 0.00 0.00 44 1014.0
20260504192722 70 217 0.0 4.0 0.00 0.00 0.00 43 1014.1
20260504192222 70 267 0.0 5.0 0.00 0.00 0.00 42 1014.0
20260504191222 70 313 3.0 9.0 0.00 0.00 0.00 41 1014.0
20260504190722 69 240 1.0 6.0 0.00 0.00 0.00 42 1014.0
20260504185721 70 310 0.0 9.0 0.00 0.00 0.00 40 1014.0
20260504185222 70 310 3.0 9.0 0.00 0.00 0.00 41 1014.0
20260504183722 69 202 1.0 4.0 0.00 0.00 0.00 40 1014.3
20260504182751 69 200 1.0 5.0 0.00 0.00 0.00 40 1014.3
20260504181751 68 158 0.0 6.0 0.00 0.00 0.00 40 1014.4
20260504181251 68 156 0.0 6.0 0.00 0.00 0.00 41 1014.4
20260504180751 68 125 3.0 7.0 0.00 0.00 0.00 39 1014.4
20260504175751 68 319 2.0 5.0 0.00 0.00 0.00 39 1014.4
20260504175250 68 319 2.0 5.0 0.00 0.00 0.00 38 1014.4
20260504174750 67 326 0.0 6.0 0.00 0.00 0.00 37 1014.6
20260504173751 65 304 1.0 4.0 0.00 0.00 0.00 37 1014.5
20260504173251 65 304 2.0 4.0 0.00 0.00 0.00 37 1014.5
20260504171750 64 306 0.0 4.0 0.00 0.00 0.00 35 1014.4
20260504171250 63 306 0.0 4.0 0.00 0.00 0.00 35 1014.4
20260504170750 63 306 0.0 2.0 0.00 0.00 0.00 34 1014.5
20260504170250 62 306 0.0 0.0 0.00 0.00 0.00 34 1014.5
20260504160250 55 308 0.0 0.0 0.00 0.00 0.00 23 1014.6
20260504150748 51 299 0.0 0.0 0.00 0.00 0.00 14 1014.6
20260504150248 51 299 0.0 0.0 0.00 0.00 0.00 15 1014.6
20260504141247 44 299 0.0 0.0 0.00 0.00 0.00 17 1014.2
20260504140748 43 299 0.0 0.0 0.00 0.00 0.00 17 1014.2
20260504140248 42 299 0.0 0.0 0.00 0.00 0.00 17 1014.1
20260504130747 42 299 0.0 0.0 0.00 0.00 0.00 18 1014.0
20260504130246 42 299 0.0 0.0 0.00 0.00 0.00 18 1014.1
20260504110245 45 299 0.0 0.0 0.00 0.00 0.00 19 1014.0
20260504100245 46 299 0.0 0.0 0.00 0.00 0.00 20 1014.2
20260504081743 48 299 0.0 0.0 0.00 0.00 0.00 29 1014.6
20260504081242 48 299 0.0 0.0 0.00 0.00 0.00 29 1014.9
20260504080742 49 299 0.0 0.0 0.00 0.00 0.00 29 1014.9
20260504080242 49 299 0.0 0.0 0.00 0.00 0.00 29 1014.9
20260504070241 52 299 0.0 0.0 0.00 0.00 0.00 32 1014.9
20260504050741 57 299 0.0 3.0 0.00 0.00 0.00 40 1014.7
20260504050240 57 299 1.0 3.0 0.00 0.00 0.00 41 1014.7
20260504045740 57 299 0.0 0.0 0.00 0.00 0.00 41 1014.7
20260504045240 57 299 0.0 1.0 0.00 0.00 0.00 42 1014.6
20260504044740 57 299 0.0 1.0 0.00 0.00 0.00 42 1014.7
20260504044240 57 299 0.0 0.0 0.00 0.00 0.00 42 1014.7
20260504043239 57 299 0.0 0.0 0.00 0.00 0.00 43 1014.6
20260504042739 57 299 0.0 0.0 0.00 0.00 0.00 43 1014.6
20260504042241 57 299 0.0 0.0 0.00 0.00 0.00 44 1014.4
20260504041239 58 299 0.0 2.0 0.00 0.00 0.00 44 1014.0
20260504040739 58 299 0.0 2.0 0.00 0.00 0.00 45 1013.9
20260504040239 58 299 0.0 0.0 0.00 0.00 0.00 45 1013.9
20260504035739 58 299 0.0 0.0 0.00 0.00 0.00 45 1013.9
20260504035239 58 299 0.0 0.0 0.00 0.00 0.00 45 1013.8
20260504034739 58 299 0.0 0.0 0.00 0.00 0.00 46 1013.7
20260504034239 58 299 0.0 2.0 0.00 0.00 0.00 46 1013.5
20260504033238 58 299 0.0 9.0 0.00 0.00 0.00 46 1013.4
20260504032739 59 299 1.0 9.0 0.00 0.00 0.00 46 1013.4
20260504031239 59 307 1.0 5.0 0.00 0.00 0.00 47 1013.3
20260504030738 59 309 2.0 6.0 0.00 0.00 0.00 47 1013.2
20260504030238 59 291 4.0 6.0 0.00 0.00 0.00 47 1013.2
20260504025738 60 300 0.0 7.0 0.00 0.00 0.00 46 1013.2
20260504025238 60 300 3.0 7.0 0.00 0.00 0.00 46 1013.0
20260504024739 60 302 2.0 7.0 0.00 0.00 0.00 46 1013.0
20260504024238 60 302 0.0 5.0 0.00 0.00 0.00 46 1013.1
20260504023738 60 302 0.0 7.0 0.00 0.00 0.00 45 1012.9
20260504023238 60 302 0.0 8.0 0.00 0.00 0.00 45 1012.9
20260504022737 61 306 0.0 8.0 0.00 0.00 0.00 45 1012.8
20260504022237 61 295 0.0 10.0 0.00 0.00 0.00 45 1012.9
20260504021738 61 277 3.0 10.0 0.00 0.00 0.00 45 1012.9
20260504021238 61 286 1.0 9.0 0.00 0.00 0.00 46 1012.7
20260504020738 61 302 3.0 10.0 0.00 0.00 0.00 46 1012.6
20260504020237 62 302 2.0 10.0 0.00 0.00 0.00 45 1012.6
20260504015738 62 277 1.0 6.0 0.00 0.00 0.00 45 1012.6
20260504015238 62 296 3.0 7.0 0.00 0.00 0.00 45 1012.6
20260504014737 62 296 0.0 7.0 0.00 0.00 0.00 45 1012.7
20260504014237 62 288 0.0 6.0 0.00 0.00 0.00 45 1012.7
20260504013737 62 299 5.0 6.0 0.00 0.00 0.00 45 1012.4
20260504013237 62 302 0.0 6.0 0.00 0.00 0.00 45 1012.3
20260504012737 62 234 0.0 7.0 0.00 0.00 0.00 45 1012.3
20260504012237 62 304 0.0 9.0 0.00 0.00 0.00 45 1012.3
20260504011737 62 306 3.0 11.0 0.00 0.00 0.00 45 1012.3
20260504011237 62 304 0.0 11.0 0.00 0.00 0.00 45 1012.3
20260504010737 62 304 1.0 6.0 0.00 0.00 0.00 45 1012.2
20260504010236 62 306 1.0 6.0 0.00 0.00 0.00 45 1012.3
20260504005737 62 298 1.0 10.0 0.00 0.00 0.00 45 1012.3
20260504004736 63 226 0.0 10.0 0.00 0.00 0.00 44 1012.4
20260504004236 63 241 9.0 10.0 0.00 0.00 0.00 44 1012.4
20260504003736 63 309 3.0 10.0 0.00 0.00 0.00 43 1012.3
20260504003236 64 275 2.0 6.0 0.00 0.00 0.00 43 1012.1
20260504002736 64 290 1.0 6.0 0.00 0.00 0.00 43 1012.1
20260504002236 64 303 2.0 9.0 0.00 0.00 0.00 42 1012.1